N0JVW-13 Weather Reports


Display with metric or nautical units.
time (UTC)temp
F
wind
direction
speed
MPH
gust
MPH
rain 1hr
in
rain 24hr
in
rain mn
in
humidity
%
barometer
mb
20260510032040 67 25 0.0 0.0 0.00 0.00 0.00 56 1011.2
20260510031516 67 25 0.0 0.0 0.00 0.00 0.00 56 1011.1
20260510031058 67 25 0.0 0.0 0.00 0.00 0.00 55 1010.8
20260510030534 68 25 0.0 0.0 0.00 0.00 0.00 54 1010.8
20260510030008 68 25 0.0 0.0 0.00 0.00 0.00 54 1010.8
20260510025549 68 25 0.0 0.0 0.00 0.00 0.00 54 1010.6
20260510025025 68 25 0.0 0.0 0.00 0.00 0.00 53 1010.4
20260510024502 69 25 0.0 0.0 0.00 0.00 0.00 53 1010.4
20260510024042 69 25 0.0 0.0 0.00 0.00 0.00 53 1010.3
20260510023517 69 25 0.0 0.0 0.00 0.00 0.00 52 1010.1
20260510023058 69 25 0.0 0.0 0.00 0.00 0.00 51 1009.9
20260510022535 70 25 0.0 0.0 0.00 0.00 0.00 51 1009.8
20260510022011 70 25 0.0 0.0 0.00 0.00 0.00 51 1009.8
20260510021551 70 25 0.0 2.0 0.00 0.00 0.00 50 1009.7
20260510021027 71 25 0.0 2.0 0.00 0.00 0.00 49 1009.6
20260510020506 71 5 0.0 2.0 0.00 0.00 0.00 49 1009.6
20260510020048 71 352 1.0 3.0 0.00 0.00 0.00 49 1009.4
20260510015520 71 32 0.0 3.0 0.00 0.00 0.00 48 1009.5
20260510015101 71 6 0.0 3.0 0.00 0.00 0.00 49 1009.4
20260510014542 71 16 0.0 3.0 0.00 0.00 0.00 48 1009.3
20260510014015 72 358 0.0 4.0 0.00 0.00 0.00 48 1009.2
20260510013556 72 26 1.0 4.0 0.00 0.00 0.00 47 1009.1
20260510013031 72 44 1.0 4.0 0.00 0.00 0.00 47 1009.0
20260510012507 72 342 1.0 4.0 0.00 0.00 0.00 48 1009.0
20260510012050 72 15 0.0 2.0 0.00 0.00 0.00 48 1008.9
20260510011536 72 349 0.0 3.0 0.00 0.00 0.00 47 1008.9
20260510011105 73 20 0.0 3.0 0.00 0.00 0.00 47 1008.8
20260510010540 73 10 0.0 2.0 0.00 0.00 0.00 46 1008.8
20260510010018 73 10 0.0 2.0 0.00 0.00 0.00 46 1008.7
20260510005559 73 9 0.0 6.0 0.00 0.00 0.00 45 1008.6
20260510005036 74 9 2.0 6.0 0.00 0.00 0.00 44 1008.4
20260510004513 74 20 0.0 6.0 0.00 0.00 0.00 45 1008.4
20260510004053 74 41 0.0 6.0 0.00 0.00 0.00 44 1008.3
20260510003531 74 298 1.0 6.0 0.00 0.00 0.00 43 1008.3
20260510003008 75 343 0.0 4.0 0.00 0.00 0.00 43 1008.1
20260510002548 75 37 0.0 4.0 0.00 0.00 0.00 43 1007.9
20260510002024 75 15 1.0 4.0 0.00 0.00 0.00 43 1007.9
20260510001501 75 352 0.0 7.0 0.00 0.00 0.00 42 1007.8
20260510001042 76 9 3.0 7.0 0.00 0.00 0.00 41 1007.6
20260510000519 76 18 1.0 7.0 0.00 0.00 0.00 40 1007.6
20260510000107 76 7 1.0 7.0 0.00 0.00 0.00 40 1007.6
20260509235538 76 27 1.0 4.0 0.00 0.00 0.00 40 1007.6
20260509235015 76 330 0.0 6.0 0.00 0.00 0.00 40 1007.5
20260509234559 77 19 0.0 6.0 0.00 0.00 0.00 40 1007.6
20260509234027 77 320 0.0 11.0 0.00 0.00 0.00 39 1007.5
20260509233505 78 283 0.0 11.0 0.00 0.00 0.00 38 1007.5
20260509233047 78 62 1.0 7.0 0.00 0.00 0.00 36 1007.4
20260509232521 79 340 0.0 2.0 0.00 0.00 0.00 35 1007.2
20260509232101 79 285 0.0 1.0 0.00 0.00 0.00 33 1007.0
20260509231548 80 285 0.0 1.0 0.00 0.00 0.00 34 1006.9
20260509231022 80 285 0.0 1.0 0.00 0.00 0.00 33 1006.9
20260509230606 80 285 0.0 1.0 0.00 0.00 0.00 33 1006.8
20260509230039 80 285 0.0 2.0 0.00 0.00 0.00 35 1006.8
20260509225516 81 285 0.0 2.0 0.00 0.00 0.00 34 1006.8
20260509225056 81 268 0.0 1.0 0.00 0.00 0.00 34 1006.7
20260509224532 81 267 0.0 1.0 0.00 0.00 0.00 34 1006.7
20260509224008 81 268 0.0 2.0 0.00 0.00 0.00 34 1006.6
20260509223549 81 267 0.0 2.0 0.00 0.00 0.00 33 1006.6
20260509223026 81 281 1.0 2.0 0.00 0.00 0.00 33 1006.6
20260509222501 81 276 0.0 2.0 0.00 0.00 0.00 34 1006.6
20260509222045 82 276 0.0 2.0 0.00 0.00 0.00 33 1006.6
20260509221520 82 311 0.0 2.0 0.00 0.00 0.00 32 1006.6
20260509221100 82 285 0.0 3.0 0.00 0.00 0.00 32 1006.5
20260509220535 82 291 0.0 3.0 0.00 0.00 0.00 31 1006.5
20260509220011 83 279 1.0 2.0 0.00 0.00 0.00 31 1006.5
20260509215553 83 265 0.0 3.0 0.00 0.00 0.00 33 1006.5
20260509215032 83 264 0.0 3.0 0.00 0.00 0.00 32 1006.5
20260509214506 82 275 0.0 3.0 0.00 0.00 0.00 33 1006.5
20260509214046 82 300 0.0 1.0 0.00 0.00 0.00 35 1006.5
20260509213523 82 281 0.0 2.0 0.00 0.00 0.00 36 1006.6
20260509213103 82 285 0.0 4.0 0.00 0.00 0.00 35 1006.5
20260509212539 82 264 0.0 4.0 0.00 0.00 0.00 35 1006.6
20260509212017 82 200 0.0 1.0 0.00 0.00 0.00 38 1006.5
20260509211556 82 291 0.0 3.0 0.00 0.00 0.00 33 1006.5
20260509211033 83 313 0.0 3.0 0.00 0.00 0.00 33 1006.5
20260509210510 82 277 0.0 3.0 0.00 0.00 0.00 35 1006.6
20260509210057 82 277 0.0 3.0 0.00 0.00 0.00 34 1006.6
20260509205523 82 273 0.0 3.0 0.00 0.00 0.00 35 1006.7
20260509205104 82 273 0.0 3.0 0.00 0.00 0.00 36 1006.7
20260509204549 82 278 0.0 2.0 0.00 0.00 0.00 35 1006.8
20260509204023 81 280 0.0 3.0 0.00 0.00 0.00 37 1006.9
20260509203558 81 280 0.0 3.0 0.00 0.00 0.00 35 1007.0
20260509203033 81 275 0.0 3.0 0.00 0.00 0.00 38 1007.0
20260509202510 81 316 1.0 3.0 0.00 0.00 0.00 39 1007.1
20260509202051 81 311 0.0 2.0 0.00 0.00 0.00 39 1007.1
20260509201530 81 298 0.0 2.0 0.00 0.00 0.00 38 1007.2
20260509201004 81 311 0.0 3.0 0.00 0.00 0.00 38 1007.2
20260509200545 81 285 0.0 3.0 0.00 0.00 0.00 39 1007.2
20260509200022 81 282 0.0 4.0 0.00 0.00 0.00 38 1007.3
20260509195604 81 267 1.0 4.0 0.00 0.00 0.00 36 1007.3
20260509195039 81 317 0.0 3.0 0.00 0.00 0.00 37 1007.4
20260509194518 81 298 0.0 3.0 0.00 0.00 0.00 38 1007.5
20260509194056 81 327 1.0 3.0 0.00 0.00 0.00 37 1007.6
20260509193533 81 277 0.0 2.0 0.00 0.00 0.00 38 1007.5
20260509193008 81 316 0.0 2.0 0.00 0.00 0.00 40 1007.6
20260509192551 81 316 0.0 3.0 0.00 0.00 0.00 41 1007.6
20260509192026 81 316 1.0 3.0 0.00 0.00 0.00 39 1007.6
20260509191605 81 203 0.0 2.0 0.00 0.00 0.00 40 1007.6
20260509191039 80 203 0.0 2.0 0.00 0.00 0.00 40 1007.7
20260509190516 80 289 0.0 4.0 0.00 0.00 0.00 41 1007.7
20260509190056 80 257 0.0 4.0 0.00 0.00 0.00 40 1007.8
20260509185531 80 105 0.0 4.0 0.00 0.00 0.00 41 1007.9
20260509185011 80 79 1.0 3.0 0.00 0.00 0.00 42 1007.9
20260509184558 80 294 0.0 3.0 0.00 0.00 0.00 41 1007.9
20260509184023 80 329 0.0 2.0 0.00 0.00 0.00 40 1008.0
20260509183604 80 274 0.0 2.0 0.00 0.00 0.00 38 1008.0
20260509183039 80 274 0.0 2.0 0.00 0.00 0.00 40 1008.0
20260509182515 79 279 0.0 2.0 0.00 0.00 0.00 40 1008.1
20260509182056 79 280 0.0 3.0 0.00 0.00 0.00 41 1008.1
20260509181532 79 280 0.0 3.0 0.00 0.00 0.00 40 1008.2
20260509181010 79 251 0.0 3.0 0.00 0.00 0.00 40 1008.2
20260509180550 79 275 0.0 3.0 0.00 0.00 0.00 43 1008.3
20260509180026 79 326 0.0 1.0 0.00 0.00 0.00 45 1008.4
20260509175502 78 326 0.0 2.0 0.00 0.00 0.00 43 1008.4
20260509175042 78 326 0.0 3.0 0.00 0.00 0.00 42 1008.5
20260509174518 78 291 0.0 3.0 0.00 0.00 0.00 43 1008.5
20260509174100 78 186 0.0 2.0 0.00 0.00 0.00 42 1008.4
20260509173535 78 186 0.0 1.0 0.00 0.00 0.00 45 1008.6
20260509173011 77 186 0.0 2.0 0.00 0.00 0.00 47 1008.7
20260509172551 77 186 0.0 2.0 0.00 0.00 0.00 45 1008.7
20260509172028 77 184 0.0 1.0 0.00 0.00 0.00 48 1008.8
20260509171502 76 295 0.0 3.0 0.00 0.00 0.00 45 1008.9
20260509171044 76 296 0.0 3.0 0.00 0.00 0.00 44 1008.9
20260509170519 76 274 0.0 3.0 0.00 0.00 0.00 44 1008.9
20260509170100 76 274 0.0 3.0 0.00 0.00 0.00 46 1009.0
20260509165536 75 269 0.0 2.0 0.00 0.00 0.00 45 1009.0
20260509165011 75 277 0.0 2.0 0.00 0.00 0.00 43 1009.0
20260509164553 75 284 0.0 1.0 0.00 0.00 0.00 46 1009.0
20260509164028 75 284 0.0 1.0 0.00 0.00 0.00 48 1009.1
20260509163503 74 252 0.0 2.0 0.00 0.00 0.00 49 1009.0
20260509163044 74 296 0.0 3.0 0.00 0.00 0.00 49 1009.0
20260509162521 74 296 0.0 3.0 0.00 0.00 0.00 49 1009.0
20260509162102 73 290 0.0 2.0 0.00 0.00 0.00 50 1008.9
20260509161538 73 290 0.0 2.0 0.00 0.00 0.00 49 1008.9
20260509161013 73 275 0.0 2.0 0.00 0.00 0.00 51 1008.9
20260509160557 73 278 0.0 1.0 0.00 0.00 0.00 51 1008.9
20260509160035 72 278 0.0 2.0 0.00 0.00 0.00 52 1008.9
20260509155507 72 278 0.0 3.0 0.00 0.00 0.00 52 1008.9
20260509155048 72 274 1.0 3.0 0.00 0.00 0.00 51 1008.9
20260509154523 71 302 0.0 3.0 0.00 0.00 0.00 53 1008.8
20260509154104 71 310 1.0 3.0 0.00 0.00 0.00 52 1008.8
20260509153540 71 282 0.0 2.0 0.00 0.00 0.00 54 1008.8
20260509153030 71 272 0.0 2.0 0.00 0.00 0.00 55 1008.7
20260509152557 70 282 0.0 2.0 0.00 0.00 0.00 56 1008.8
20260509152037 70 273 1.0 2.0 0.00 0.00 0.00 56 1008.8
20260509151507 69 282 1.0 3.0 0.00 0.00 0.00 57 1008.8
20260509151048 69 276 0.0 3.0 0.00 0.00 0.00 58 1008.7
20260509150524 69 280 0.0 2.0 0.00 0.00 0.00 58 1008.7
20260509150008 68 276 0.0 3.0 0.00 0.00 0.00 60 1008.7
20260509145550 68 276 1.0 3.0 0.00 0.00 0.00 59 1008.7
20260509145024 68 279 1.0 3.0 0.00 0.00 0.00 60 1008.8
20260509144612 67 274 0.0 3.0 0.00 0.00 0.00 62 1008.8
20260509144039 67 293 2.0 3.0 0.00 0.00 0.00 63 1008.8
20260509143515 66 307 0.0 3.0 0.00 0.00 0.00 66 1008.9
20260509143119 66 306 0.0 3.0 0.00 0.00 0.00 67 1008.8
20260509142533 66 283 0.0 3.0 0.00 0.00 0.00 68 1008.7
20260509142012 65 305 0.0 3.0 0.00 0.00 0.00 69 1008.8
20260509141549 65 297 0.0 3.0 0.00 0.00 0.00 69 1008.8
20260509141024 64 257 1.0 3.0 0.00 0.00 0.00 70 1008.8
20260509140604 64 278 0.0 3.0 0.00 0.00 0.00 72 1008.8
20260509140041 63 279 0.0 4.0 0.00 0.00 0.00 74 1008.8
20260509135517 63 281 0.0 4.0 0.00 0.00 0.00 75 1008.9
20260509135102 62 264 0.0 2.0 0.00 0.00 0.00 76 1008.9
20260509134557 62 302 0.0 4.0 0.00 0.00 0.00 76 1008.9
20260509134010 61 316 1.0 4.0 0.00 0.00 0.00 76 1008.9
20260509133553 61 327 0.0 4.0 0.00 0.00 0.00 76 1008.9
20260509133029 60 282 0.0 2.0 0.00 0.00 0.00 75 1009.0
20260509132502 60 283 0.0 2.0 0.00 0.00 0.00 74 1009.0
20260509132046 60 313 0.0 2.0 0.00 0.00 0.00 72 1009.0
20260509131518 59 268 0.0 2.0 0.00 0.00 0.00 71 1009.0
20260509131057 59 253 0.0 2.0 0.00 0.00 0.00 66 1009.0
20260509130537 59 300 0.0 2.0 0.00 0.00 0.00 64 1008.9
20260509130010 58 310 0.0 1.0 0.00 0.00 0.00 54 1008.7
20260509125549 58 273 0.0 0.0 0.00 0.00 0.00 46 1008.6
20260509125030 57 273 0.0 0.0 0.00 0.00 0.00 33 1008.6
20260509124504 57 273 0.0 0.0 0.00 0.00 0.00 23 1008.6
20260509124046 56 273 0.0 0.0 0.00 0.00 0.00 15 1008.6
20260509123520 56 273 0.0 1.0 0.00 0.00 0.00 1 1008.6
20260509123131 55 273 0.0 1.0 0.00 0.00 0.00 1 1008.6
20260509122537 55 155 0.0 0.0 0.00 0.00 0.00 1 1008.5
20260509122016 54 155 0.0 0.0 0.00 0.00 0.00 1 1008.4
20260509121612 54 155 0.0 0.0 0.00 0.00 0.00 1 1008.4
20260509121031 54 155 0.0 0.0 0.00 0.00 0.00 1 1008.2
20260509120507 54 155 0.0 0.0 0.00 0.00 0.00 1 1008.2
20260509120048 53 155 0.0 0.0 0.00 0.00 0.00 1 1008.2
20260509115522 53 155 0.0 0.0 0.00 0.00 0.00 1 1008.1
20260509115100 53 155 0.0 0.0 0.00 0.00 0.00 1 1008.1
20260509114539 53 155 0.0 0.0 0.00 0.00 0.00 1 1008.1
20260509114016 53 155 0.0 0.0 0.00 0.00 0.00 1 1008.0
20260509113556 53 155 0.0 0.0 0.00 0.00 0.00 1 1007.9
20260509113036 53 155 0.0 0.0 0.00 0.00 0.00 1 1007.8
20260509112505 53 155 0.0 0.0 0.00 0.00 0.00 1 1007.6
20260509112046 53 155 0.0 0.0 0.00 0.00 0.00 1 1007.6
20260509111522 53 155 0.0 0.0 0.00 0.00 0.00 1 1007.6
20260509111104 53 155 0.0 0.0 0.00 0.00 0.00 1 1007.6
20260509110537 53 155 0.0 2.0 0.00 0.00 0.00 1 1007.6
20260509110013 53 155 0.0 2.0 0.00 0.00 0.00 1 1007.6
20260509105554 53 154 0.0 0.0 0.00 0.00 0.00 1 1007.5
20260509105028 53 154 0.0 0.0 0.00 0.00 0.00 1 1007.6
20260509104503 53 154 0.0 0.0 0.00 0.00 0.00 1 1007.6
20260509104043 53 154 0.0 0.0 0.00 0.00 0.00 1 1007.7
20260509103518 53 154 0.0 0.0 0.00 0.00 0.00 1 1007.7
20260509103106 53 154 0.0 0.0 0.00 0.00 0.00 1 1007.7
20260509102535 54 154 0.0 0.0 0.00 0.00 0.00 1 1007.6
20260509102013 54 154 0.0 0.0 0.00 0.00 0.00 1 1007.6
20260509101618 54 154 0.0 0.0 0.00 0.00 0.00 1 1007.6
20260509101031 54 154 0.0 0.0 0.00 0.00 0.00 1 1007.7
20260509100502 54 154 0.0 0.0 0.00 0.00 0.00 1 1007.8
20260509100044 54 154 0.0 0.0 0.00 0.00 0.00 1 1007.9
20260509095521 54 154 0.0 0.0 0.00 0.00 0.00 1 1007.8
20260509095103 54 154 0.0 0.0 0.00 0.00 0.00 1 1007.8
20260509094540 54 154 0.0 0.0 0.00 0.00 0.00 1 1007.9
20260509094013 55 154 0.0 0.0 0.00 0.00 0.00 1 1007.9
20260509093555 55 154 0.0 0.0 0.00 0.00 0.00 1 1007.8
20260509093030 55 154 0.0 0.0 0.00 0.00 0.00 1 1007.9
20260509092506 55 154 0.0 0.0 0.00 0.00 0.00 1 1007.9
20260509092047 55 154 0.0 0.0 0.00 0.00 0.00 1 1007.8
20260509091536 55 154 0.0 0.0 0.00 0.00 0.00 1 1007.7
20260509091001 55 154 0.0 0.0 0.00 0.00 0.00 1 1007.8
20260509090543 55 154 0.0 0.0 0.00 0.00 0.00 1 1007.7
20260509090017 55 154 0.0 0.0 0.00 0.00 0.00 1 1007.6
20260509085557 55 154 0.0 0.0 0.00 0.00 0.00 1 1007.6
20260509085034 55 154 0.0 0.0 0.00 0.00 0.00 1 1007.5
20260509084510 55 154 0.0 0.0 0.00 0.00 0.00 1 1007.7
20260509084052 55 154 0.0 0.0 0.00 0.00 0.00 1 1007.7
20260509083527 55 154 0.0 0.0 0.00 0.00 0.00 1 1007.7
20260509083002 55 154 0.0 0.0 0.00 0.00 0.00 1 1007.6
20260509082543 55 154 0.0 0.0 0.00 0.00 0.00 1 1007.7
20260509082019 54 154 0.0 0.0 0.00 0.00 0.00 1 1007.7
20260509081611 54 154 0.0 0.0 0.00 0.00 0.00 1 1007.8
20260509081037 54 154 0.0 0.0 0.00 0.00 0.00 1 1007.8
20260509080512 54 154 0.0 0.0 0.00 0.00 0.00 1 1007.8
20260509080053 54 154 0.0 0.0 0.00 0.00 0.00 1 1007.7
20260509075529 54 154 0.0 0.0 0.00 0.00 0.00 1 1007.8
20260509075004 54 154 0.0 0.0 0.00 0.00 0.00 1 1007.8
20260509074549 54 154 0.0 0.0 0.00 0.00 0.00 1 1007.7
20260509074017 54 154 0.0 0.0 0.00 0.00 0.00 1 1007.8
20260509073601 54 154 0.0 0.0 0.00 0.00 0.00 1 1007.9
20260509073033 55 154 0.0 0.0 0.00 0.00 0.00 1 1007.9
20260509072510 55 154 0.0 0.0 0.00 0.00 0.00 1 1008.0
20260509072055 55 154 0.0 0.0 0.00 0.00 0.00 1 1008.0
20260509071527 55 154 0.0 0.0 0.00 0.00 0.00 1 1007.9
20260509071004 55 154 0.0 0.0 0.00 0.00 0.00 1 1007.9
20260509070544 55 154 0.0 0.0 0.00 0.00 0.00 1 1008.0
20260509070022 55 154 0.0 0.0 0.00 0.00 0.00 1 1008.0
20260509065601 55 154 0.0 0.0 0.00 0.00 0.00 1 1008.0
20260509065037 55 154 0.0 0.0 0.00 0.00 0.00 1 1008.0
20260509064515 55 154 0.0 0.0 0.00 0.00 0.00 1 1008.0
20260509064055 55 154 0.0 0.0 0.00 0.00 0.00 1 1008.1
20260509063530 55 154 0.0 0.0 0.00 0.00 0.00 1 1008.1
20260509063013 56 154 0.0 0.0 0.00 0.00 0.00 1 1008.1
20260509062548 56 154 0.0 0.0 0.00 0.00 0.00 1 1008.2
20260509062029 56 154 0.0 0.0 0.00 0.00 0.00 1 1008.2
20260509061607 56 153 0.0 0.0 0.00 0.00 0.00 1 1008.3
20260509061039 56 154 0.0 1.0 0.00 0.00 0.00 1 1008.3
20260509060516 55 154 0.0 1.0 0.00 0.00 0.00 1 1008.3
20260509060056 55 154 0.0 0.0 0.00 0.00 0.00 1 1008.4
20260509055532 55 154 0.0 0.0 0.00 0.00 0.00 1 1008.3
20260509055008 55 154 0.0 0.0 0.00 0.00 0.00 1 1008.3
20260509054559 55 154 0.0 0.0 0.00 0.00 0.00 1 1008.4
20260509054025 55 154 0.0 0.0 0.00 0.00 0.00 1 1008.3
20260509053501 55 154 0.0 0.0 0.00 0.00 0.00 1 1008.3
20260509053046 55 154 0.0 0.0 0.00 0.00 0.00 1 1008.3
20260509052517 55 128 0.0 0.0 0.00 0.00 0.00 1 1008.3
20260509052059 55 128 0.0 0.0 0.00 0.00 0.00 1 1008.2
20260509051539 55 128 0.0 0.0 0.00 0.00 0.00 1 1008.3
20260509051012 55 128 0.0 0.0 0.00 0.00 0.00 1 1008.3
20260509050556 55 127 0.0 0.0 0.00 0.00 0.00 1 1008.2
20260509050031 55 126 0.0 0.0 0.00 0.00 0.00 3 1008.3
20260509045504 55 126 0.0 0.0 0.00 0.00 0.00 3 1008.3
20260509045046 55 126 0.0 0.0 0.00 0.00 0.00 3 1008.4
20260509044522 55 126 0.0 0.0 0.00 0.00 0.00 5 1008.4
20260509044105 55 126 0.0 0.0 0.00 0.00 0.00 7 1008.5
20260509043539 55 126 0.0 0.0 0.00 0.00 0.00 7 1008.5
20260509043016 56 126 0.0 0.0 0.00 0.00 0.00 7 1008.5
20260509042556 56 126 0.0 0.0 0.00 0.00 0.00 7 1008.5
20260509042033 56 347 0.0 0.0 0.00 0.00 0.00 8 1008.6
20260509041508 56 347 0.0 0.0 0.00 0.00 0.00 9 1008.7
20260509041049 56 347 0.0 0.0 0.00 0.00 0.00 8 1008.7
20260509040523 56 347 0.0 0.0 0.00 0.00 0.00 9 1008.7
20260509040106 56 347 0.0 0.0 0.00 0.00 0.00 10 1008.6
20260509035541 56 347 0.0 0.0 0.00 0.00 0.00 12 1008.6
20260509035017 56 347 0.0 0.0 0.00 0.00 0.00 13 1008.6
20260509034557 56 347 0.0 0.0 0.00 0.00 0.00 15 1008.5
20260509034037 56 347 0.0 0.0 0.00 0.00 0.00 20 1008.6
20260509033509 56 347 0.0 0.0 0.00 0.00 0.00 21 1008.6
20260509033050 56 347 0.0 0.0 0.00 0.00 0.00 22 1008.6
20260509032526 56 347 0.0 0.0 0.00 0.00 0.00 23 1008.7